Date String (YYYY-MM-DD hh:mm:ss) UTC,Instrument flags,Ambient pressure (hPa),Sample flow (lpm),Bypass flow (lpm),Sample temperature (°C),Ambient temperature (°C),ASC tube jacket temperature (°C),LED temperature (°C),Box temperature (°C),Sample RH (%),Span deviation,Mass concentration (μg/m³),Mass concentration (μg/m³),Mass concentration (μg/m³)
DateTimeUTC,F1_M11,P_M11,Q1_M11,Q2_M11,T1_M11,T2_M11,T3_M11,T4_M11,T5_M11,U1_M11,ZSPAN_M11,X0_M11,X2_M11,X1_M11
2021-08-24 11:00:00,,0826.9,5.00,0.00,29.7,29.0,00.0,38.7,31.5,12.7,0000.0,0005.31,0002.87,0002.53
2021-08-24 11:01:00,,0826.9,5.00,0.00,29.7,29.0,00.0,38.8,31.5,12.9,0000.0,0005.22,0002.84,0002.52
2021-08-24 11:02:00,,0827.1,5.00,0.00,29.7,28.9,00.0,38.8,31.5,12.8,0000.0,0005.54,0002.83,0002.51
2021-08-24 11:03:00,,0827.0,5.00,0.00,29.7,28.9,00.0,38.8,31.4,12.8,0000.0,0005.66,0002.83,0002.49
2021-08-24 11:04:00,,0827.0,4.99,0.00,29.7,28.9,00.0,38.8,31.4,12.8,0000.0,0004.39,0002.79,0002.48
2021-08-24 11:05:00,,0827.1,5.00,0.00,29.7,28.9,00.0,38.8,31.4,12.9,0000.0,0004.39,0002.79,0002.49
2021-08-24 11:06:00,,0827.0,5.02,0.00,29.7,28.9,00.0,38.8,31.4,13.0,0000.0,0004.36,0002.79,0002.50
2021-08-24 11:07:00,,0827.0,5.00,0.00,29.7,28.9,00.0,38.8,31.5,13.1,0000.0,0004.44,0002.81,0002.50
2021-08-24 11:08:00,,0827.2,5.01,0.00,29.7,28.9,00.0,38.8,31.4,13.0,0000.0,0004.34,0002.79,0002.50
2021-08-24 11:09:00,,0827.3,4.98,0.00,29.7,28.9,00.0,38.8,31.4,13.0,0000.0,0004.32,0002.74,0002.50
2021-08-24 11:10:00,,0827.3,5.01,0.00,29.7,28.9,00.0,38.8,31.4,13.1,0000.0,0005.12,0002.75,0002.51
2021-08-24 11:11:00,,0827.2,4.99,0.00,29.6,28.9,00.0,38.8,31.4,13.2,0000.0,0006.04,0002.81,0002.52
2021-08-24 11:12:00,,0826.9,4.99,0.00,29.6,28.9,00.0,38.8,31.4,13.1,0000.0,0006.12,0002.86,0002.55
2021-08-24 11:13:00,,0827.0,5.01,0.00,29.6,28.9,00.0,38.8,31.4,13.1,0000.0,0005.87,0002.87,0002.58
2021-08-24 11:14:00,,0827.0,5.00,0.00,29.6,28.9,00.0,38.8,31.4,13.2,0000.0,0005.68,0002.90,0002.61
2021-08-24 11:15:00,,0827.0,5.01,0.00,29.6,28.9,00.0,38.8,31.3,13.3,0000.0,0005.85,0002.91,0002.61
2021-08-24 11:16:00,,0826.9,5.01,0.00,29.6,28.8,00.0,38.8,31.3,13.2,0000.0,0005.88,0002.89,0002.59
2021-08-24 11:17:00,,0827.0,4.99,0.00,29.6,28.8,00.0,38.8,31.3,13.2,0000.0,0005.99,0002.91,0002.60
2021-08-24 11:18:00,,0827.2,4.99,0.00,29.6,28.8,00.0,38.8,31.3,13.2,0000.0,0006.85,0002.94,0002.62
2021-08-24 11:19:00,,0827.1,5.01,0.00,29.6,28.8,00.0,38.8,31.3,13.2,0000.0,0007.17,0002.95,0002.63
2021-08-24 11:20:00,,0827.0,4.99,0.00,29.6,28.8,00.0,38.8,31.3,13.2,0000.0,0006.88,0002.96,0002.62
2021-08-24 11:21:00,,0827.2,5.00,0.00,29.6,28.8,00.0,38.8,31.3,13.3,0000.0,0006.01,0002.96,0002.61
2021-08-24 11:22:00,,0827.0,4.99,0.00,29.6,28.9,00.0,38.8,31.3,13.4,0000.0,0005.25,0002.94,0002.62
2021-08-24 11:23:00,,0827.4,5.01,0.00,29.6,28.9,00.0,38.8,31.3,13.2,0000.0,0005.33,0002.96,0002.63
2021-08-24 11:24:00,,0827.0,5.01,0.00,29.6,28.9,00.0,38.8,31.3,13.1,0000.0,0005.33,0002.97,0002.65
2021-08-24 11:25:00,,0827.3,4.99,0.00,29.6,28.9,00.0,38.8,31.3,13.1,0000.0,0005.48,0003.01,0002.67
2021-08-24 11:26:00,,0827.1,5.00,0.00,29.6,28.9,00.0,38.8,31.3,13.4,0000.0,0005.47,0003.07,0002.70
2021-08-24 11:27:00,,0827.1,5.01,0.00,29.6,28.9,00.0,38.7,31.3,13.4,0000.0,0005.56,0003.13,0002.75
2021-08-24 11:28:00,,0827.2,5.00,0.00,29.6,28.9,00.0,38.8,31.3,13.4,0000.0,0005.44,0003.15,0002.77
2021-08-24 11:29:00,,0827.2,5.00,0.00,29.6,28.9,00.0,38.8,31.3,13.2,0000.0,0004.78,0003.16,0002.79
2021-08-24 11:30:00,,0827.2,5.01,0.00,29.6,28.9,00.0,38.8,31.4,13.1,0000.0,0004.67,0003.16,0002.80
2021-08-24 11:31:00,,0827.2,4.99,0.00,29.6,28.9,00.0,38.8,31.4,13.1,0000.0,0005.03,0003.18,0002.81
2021-08-24 11:32:00,,0827.2,4.99,0.00,29.6,28.9,00.0,38.8,31.4,13.2,0000.0,0005.06,0003.18,0002.83
2021-08-24 11:33:00,,0827.2,5.01,0.00,29.6,28.9,00.0,38.8,31.3,13.2,0000.0,0005.16,0003.21,0002.83
2021-08-24 11:34:00,,0827.2,5.01,0.00,29.6,28.9,00.0,38.8,31.3,13.5,0000.0,0005.14,0003.21,0002.84
2021-08-24 11:35:00,,0827.2,5.00,0.00,29.6,28.9,00.0,38.7,31.3,13.7,0000.0,0005.21,0003.22,0002.84
2021-08-24 11:36:00,,0827.2,4.99,0.00,29.6,28.9,00.0,38.7,31.3,13.8,0000.0,0005.24,0003.24,0002.85
2021-08-24 11:37:00,,0827.2,5.01,0.00,29.6,28.9,00.0,38.7,31.3,13.8,0000.0,0005.21,0003.24,0002.87
2021-08-24 11:38:00,,0827.2,4.99,0.00,29.6,28.9,00.0,38.7,31.3,13.6,0000.0,0005.36,0003.25,0002.87
2021-08-24 11:39:00,,0827.2,4.98,0.00,29.6,28.9,00.0,38.8,31.4,13.3,0000.0,0005.85,0003.25,0002.86
2021-08-24 11:40:00,,0827.2,5.00,0.00,29.6,29.0,00.0,38.8,31.4,13.3,0000.0,0005.82,0003.24,0002.84
2021-08-24 11:41:00,,0827.2,5.00,0.00,29.6,29.0,00.0,38.8,31.4,13.3,0000.0,0005.70,0003.28,0002.86
2021-08-24 11:42:00,,0827.2,5.01,0.00,29.6,29.0,00.0,38.8,31.4,13.3,0000.0,0005.56,0003.30,0002.87
2021-08-24 11:43:00,,0827.2,5.00,0.00,29.6,29.0,00.0,38.8,31.4,13.3,0000.0,0005.70,0003.33,0002.88
2021-08-24 11:44:00,,0827.2,4.99,0.00,29.6,29.0,00.0,38.8,31.4,13.5,0000.0,0005.74,0003.33,0002.89
2021-08-24 11:45:00,,0827.4,5.00,0.00,29.6,29.0,00.0,38.8,31.4,13.5,0000.0,0006.06,0003.35,0002.90
2021-08-24 11:46:00,,0827.2,4.99,0.00,29.7,29.0,00.0,38.8,31.4,13.6,0000.0,0007.58,0003.38,0002.92
2021-08-24 11:47:00,,0827.2,5.00,0.00,29.7,29.0,00.0,38.8,31.4,13.6,0000.0,0008.03,0003.38,0002.91
2021-08-24 11:48:00,,0827.3,5.00,0.00,29.7,29.1,00.0,38.8,31.4,13.6,0000.0,0008.43,0003.38,0002.90
2021-08-24 11:49:00,,0827.4,5.01,0.00,29.7,29.1,00.0,38.8,31.4,13.7,0000.0,0008.73,0003.38,0002.91
2021-08-24 11:50:00,,0827.3,5.00,0.00,29.7,29.0,00.0,38.8,31.4,13.5,0000.0,0008.50,0003.40,0002.94
2021-08-24 11:51:00,,0827.4,5.00,0.00,29.7,29.0,00.0,38.8,31.4,13.5,0000.0,0008.43,0003.40,0002.96
2021-08-24 11:52:00,,0827.3,5.00,0.00,29.6,27.2,00.0,38.8,30.9,13.9,0000.0,0008.37,0003.37,0002.95
2021-08-24 11:53:00,,0827.4,5.00,0.00,29.5,26.1,00.0,38.7,30.6,13.6,0000.0,0008.25,0003.35,0002.93
2021-08-24 11:54:00,,0827.3,4.99,0.00,29.4,26.2,00.0,38.7,30.6,13.6,0000.0,0008.19,0003.31,0002.92
2021-08-24 11:55:00,,0827.4,5.00,0.00,29.3,26.6,00.0,38.6,30.7,13.7,0000.0,0008.26,0003.29,0002.90
2021-08-24 11:56:00,,0827.3,5.00,0.00,29.3,27.0,00.0,38.6,30.8,13.6,0000.0,0008.08,0003.27,0002.87
2021-08-24 11:57:00,,0827.3,5.01,0.00,29.3,27.3,00.0,38.6,30.9,13.5,0000.0,0006.81,0003.22,0002.84
2021-08-24 11:58:00,,0827.3,5.00,0.00,29.3,27.6,00.0,38.6,30.9,13.5,0000.0,0006.01,0003.20,0002.83
2021-08-24 11:59:00,,0827.4,5.01,0.00,29.3,27.8,00.0,38.5,30.9,13.6,0000.0,0005.36,0003.19,0002.83
